Walla Walla, WA

7:13 AM PST on January 22, 2018 (GMT -0800)
Walla Walla Regional

Weather History for KALW - June, 2013

Change the Weather History Date:

Thursday, June 20, 2013

  Actual Average Record
Temperature  
Mean Temperature 60 °F 68 °F  
Max Temperature 69 °F 80 °F 99 °F (1970)
Min Temperature 52 °F 55 °F 44 °F (1964)
Degree Days  
Heating Degree Days 5 2  
Month to date heating degree days 52  
Since 1 June heating degree days 52  
Since 1 July heating degree days 5001  
Cooling Degree Days 0 4  
Month to date cooling degree days 54  
Year to date cooling degree days 89  
Since 1 June cooling degree days 54  
Growing Degree Days 10 (Base 50)    
Moisture  
Dew Point 45 °F    
Average Humidity 62    
Maximum Humidity 89    
Minimum Humidity 36    
Precipitation  
Precipitation 0.12 in 0.03 in 0.57 in (1984)
Month to date precipitation 1.01  
Year to date precipitation 11.65  
Snow  
Snow 0.00 in 0.00 in 0.00 in (2002)
Month to date snowfall 0.0  
Year to date snowfall 6.0  
Since 1 July snowfall 11.7  
Snow Depth -    
Sea Level Pressure  
Sea Level Pressure 29.99 in    
Wind  
Wind Speed 14 mph (SW)    
Max Wind Speed 21 mph    
Max Gust Speed 31 mph    
Visibility 10 miles    
Events Rain    
T = Trace of Precipitation, MM = Missing Value Source: NWS Daily Summary

Daily Weather History Graph

Daily Weather History Graph

Search for Another Location

Airport or City:

Trip Planner

Search our weather history database for the weather conditions in past years. The results will help you decide how hot, cold, wet, or windy it might be!

Date:

Astronomy

Jun. 20, 2013 Rise Set
Actual Time 5:01 AM PDT 8:47 PM PDT
Civil Twilight 4:23 AM PDT 9:26 PM PDT
Nautical Twilight 3:30 AM PDT 10:18 PM PDT
Astronomical Twilight 2:17 AM PDT 11:32 PM PDT
Moon 5:50 PM PDT (6/20) 2:39 AM PDT (6/20)
Length of Visible Light 17h 03m
Length of Day
15h 46m
Waxing Gibbous, 89% of the Moon is Illuminated
Jun 20
Waxing Gibbous
Jun 23
Full
Jun 29
Last Quarter
Jul 8
New
Jul 15
First Quarter

Hourly Weather History & Observations

Time (PDT) Temp. Dew Point Humidity Pressure Visibility Wind Dir Wind Speed Gust Speed Precip Events Conditions
12:53 AM 54.0 °F 48.0 °F 80% 29.98 in 7.0 mi South 11.5 mph - 0.03 in Rain Light Rain
1:53 AM 52.0 °F 48.9 °F 89% 29.97 in 6.0 mi South 15.0 mph - 0.04 in Rain Light Rain
2:53 AM 52.0 °F 48.0 °F 86% 29.98 in 9.0 mi South 13.8 mph - 0.03 in Rain Light Rain
3:53 AM 53.1 °F 46.0 °F 77% 29.96 in 10.0 mi South 13.8 mph - 0.02 in Rain Light Rain
4:53 AM 53.1 °F 46.0 °F 77% 29.97 in 10.0 mi SSW 15.0 mph 24.2 mph 0.00 in   Overcast
5:53 AM 54.0 °F 44.1 °F 69% 29.97 in 10.0 mi SSW 18.4 mph 26.5 mph N/A   Overcast
6:53 AM 54.0 °F 43.0 °F 66% 29.97 in 10.0 mi SSW 18.4 mph 24.2 mph N/A   Scattered Clouds
7:53 AM 55.0 °F 43.0 °F 64% 29.97 in 10.0 mi SSW 18.4 mph - N/A   Overcast
8:53 AM 57.0 °F 43.0 °F 59% 29.98 in 10.0 mi SW 20.7 mph 31.1 mph N/A   Overcast
9:53 AM 61.0 °F 45.0 °F 56% 29.97 in 10.0 mi SW 19.6 mph 24.2 mph N/A   Mostly Cloudy
10:53 AM 60.1 °F 43.0 °F 53% 29.97 in 10.0 mi WSW 19.6 mph - N/A   Overcast
11:53 AM 62.1 °F 43.0 °F 50% 29.97 in 10.0 mi WSW 20.7 mph 27.6 mph N/A   Overcast
12:53 PM 64.9 °F 43.0 °F 45% 29.97 in 10.0 mi WSW 20.7 mph 31.1 mph N/A   Mostly Cloudy
1:53 PM 66.9 °F 43.0 °F 42% 29.96 in 10.0 mi SW 20.7 mph 31.1 mph N/A   Clear
2:53 PM 68.0 °F 42.1 °F 39% 29.97 in 10.0 mi West 19.6 mph 25.3 mph N/A   Partly Cloudy
3:53 PM 68.0 °F 39.9 °F 36% 29.97 in 10.0 mi WSW 13.8 mph 26.5 mph N/A   Clear
4:53 PM 68.0 °F 39.9 °F 36% 29.98 in 10.0 mi West 17.3 mph - N/A   Partly Cloudy
5:53 PM 66.9 °F 41.0 °F 39% 29.98 in 10.0 mi West 10.4 mph - N/A   Overcast
6:53 PM 66.0 °F 41.0 °F 40% 29.99 in 10.0 mi West 8.1 mph - N/A   Mostly Cloudy
7:53 PM 60.1 °F 50.0 °F 69% 30.03 in 10.0 mi NNE 8.1 mph - N/A   Clear
8:53 PM 55.9 °F 48.9 °F 77% 30.07 in 10.0 mi North 9.2 mph - N/A   Scattered Clouds
9:53 PM 55.9 °F 50.0 °F 80% 30.08 in 10.0 mi ENE 9.2 mph - 0.00 in Rain Light Rain
10:53 PM 55.9 °F 50.0 °F 80% 30.09 in 10.0 mi Calm Calm - 0.00 in   Overcast
11:53 PM 55.0 °F 50.0 °F 83% 30.09 in 10.0 mi Calm Calm - N/A   Overcast